Simultaneous Nadir Overpasses (SNOs) Predictions

Prediction of SNOs between GOES-15 and METOP-C Satellite Orbit:

Table of predicted SNOs for the next 14.0 days since TLE Epoch: 3/14/2025
Index Date Time (GOES-15) GOES-15 Lat,Lon METOP-C Lat,Lon Distance(km) Time Diff (sec)
1 03/16/2025 05:27:00 -0.05, 61.30 0.10, 60.66 73.56 80
2 03/17/2025 05:09:01 -0.05, 61.30 -0.99, 65.65 495.85 80
3 03/18/2025 17:28:02 0.06, 61.25 -0.01, 61.05 24.11 80
4 03/21/2025 05:26:15 -0.07, 61.31 -0.11, 61.47 18.60 80
5 03/23/2025 17:21:57 0.08, 61.27 0.24, 61.86 66.91 80
6 03/25/2025 05:40:48 -0.09, 61.34 0.79, 57.29 460.65 80
7 03/26/2025 05:22:48 -0.08, 61.35 -0.32, 62.29 107.74 80
8 03/27/2025 17:41:49 0.09, 61.31 -0.69, 57.69 411.89 80
9 03/28/2025 17:18:28 0.08, 61.32 0.38, 62.69 156.02 80
